Time,TemperatureF,DewpointF,PressureIn,WindDirection,WindDirectionDegrees,WindSpeedMPH,WindSpeedGustMPH,Humidity,HourlyPrecipIn,Conditions,Clouds,dailyrainin,SoftwareType,DateUTC
2013-02-10 00:01:00,24.0,13.0,-100.00,ESE,115,2.0,4.0,63,-99.99,,,-99.99,,2013-02-10 07:01:00,
2013-02-10 00:11:00,24.0,14.0,-100.00,East,100,3.0,4.0,64,-99.99,,,-99.99,,2013-02-10 07:11:00,
2013-02-10 00:21:00,24.0,14.0,-100.00,ESE,115,3.0,4.0,65,-99.99,,,-99.99,,2013-02-10 07:21:00,
2013-02-10 00:31:00,24.0,14.0,-100.00,ESE,115,2.0,4.0,65,-99.99,,,-99.99,,2013-02-10 07:31:00,
2013-02-10 00:41:00,23.0,14.0,-100.00,ENE,65,2.0,3.0,66,-99.99,,,-99.99,,2013-02-10 07:41:00,
2013-02-10 00:52:00,22.0,13.0,-100.00,ESE,105,3.0,5.0,67,-99.99,,,-99.99,,2013-02-10 07:52:00,
2013-02-10 01:01:00,22.0,14.0,-100.00,SE,130,2.0,4.0,68,-99.99,,,-99.99,,2013-02-10 08:01:00,
2013-02-10 01:11:00,22.0,13.0,-100.00,ENE,75,2.0,3.0,69,-99.99,,,-99.99,,2013-02-10 08:11:00,
2013-02-10 01:21:00,21.0,13.0,-100.00,ESE,110,0.0,2.0,70,-99.99,,,-99.99,,2013-02-10 08:21:00,
2013-02-10 01:31:00,21.0,13.0,-100.00,ENE,75,2.0,2.0,70,-99.99,,,-99.99,,2013-02-10 08:31:00,
2013-02-10 01:43:00,21.0,14.0,-100.00,NE,55,2.0,4.0,72,-99.99,,,-99.99,,2013-02-10 08:43:00,
2013-02-10 01:52:00,21.0,14.0,-100.00,East,85,1.0,6.0,72,-99.99,,,-99.99,,2013-02-10 08:52:00,
2013-02-10 02:02:00,21.0,14.0,-100.00,SE,140,2.0,3.0,73,-99.99,,,-99.99,,2013-02-10 09:02:00,
2013-02-10 02:11:00,20.0,14.0,-100.00,SE,125,3.0,4.0,74,-99.99,,,-99.99,,2013-02-10 09:11:00,
2013-02-10 02:21:00,20.0,14.0,-100.00,East,95,4.0,6.0,75,-99.99,,,-99.99,,2013-02-10 09:21:00,
2013-02-10 02:31:00,20.0,14.0,-100.00,ESE,105,4.0,6.0,75,-99.99,,,-99.99,,2013-02-10 09:31:00,
2013-02-10 02:41:00,20.0,14.0,-100.00,East,90,4.0,6.0,75,-99.99,,,-99.99,,2013-02-10 09:41:00,
2013-02-10 02:51:00,20.0,14.0,-100.00,East,85,2.0,4.0,75,-99.99,,,-99.99,,2013-02-10 09:51:00,
2013-02-10 03:01:00,20.0,14.0,-100.00,South,175,2.0,4.0,76,-99.99,,,-99.99,,2013-02-10 10:01:00,
2013-02-10 03:11:00,19.0,13.0,-100.00,SSE,160,2.0,3.0,76,-99.99,,,-99.99,,2013-02-10 10:11:00,
2013-02-10 03:21:00,19.0,13.0,-100.00,East,85,3.0,4.0,76,-99.99,,,-99.99,,2013-02-10 10:21:00,
2013-02-10 03:31:00,19.0,13.0,-100.00,East,90,4.0,6.0,77,-99.99,,,-99.99,,2013-02-10 10:31:00,
2013-02-10 03:41:00,19.0,13.0,-100.00,East,100,4.0,6.0,77,-99.99,,,-99.99,,2013-02-10 10:41:00,
2013-02-10 03:51:00,19.0,13.0,-100.00,ESE,110,3.0,5.0,78,-99.99,,,-99.99,,2013-02-10 10:51:00,
2013-02-10 04:01:00,18.0,13.0,-100.00,ESE,110,1.0,2.0,78,-99.99,,,-99.99,,2013-02-10 11:01:00,
2013-02-10 04:11:00,18.0,13.0,-100.00,East,100,3.0,5.0,78,-99.99,,,-99.99,,2013-02-10 11:11:00,
2013-02-10 04:21:00,18.0,13.0,-100.00,East,95,1.0,3.0,79,-99.99,,,-99.99,,2013-02-10 11:21:00,
2013-02-10 04:32:00,18.0,13.0,-100.00,SE,140,2.0,3.0,79,-99.99,,,-99.99,,2013-02-10 11:32:00,
2013-02-10 04:42:00,18.0,13.0,-100.00,SE,135,2.0,4.0,80,-99.99,,,-99.99,,2013-02-10 11:42:00,
2013-02-10 04:52:00,17.0,12.0,-100.00,SE,135,3.0,4.0,80,-99.99,,,-99.99,,2013-02-10 11:52:00,
2013-02-10 05:01:00,17.0,12.0,-100.00,ENE,70,2.0,4.0,80,-99.99,,,-99.99,,2013-02-10 12:01:00,
2013-02-10 05:12:00,17.0,13.0,-100.00,ENE,65,4.0,4.0,81,-99.99,,,-99.99,,2013-02-10 12:12:00,
2013-02-10 05:21:00,18.0,13.0,-100.00,ENE,70,3.0,4.0,81,-99.99,,,-99.99,,2013-02-10 12:21:00,
2013-02-10 05:32:00,18.0,13.0,-100.00,NNE,30,0.0,2.0,81,-99.99,,,-99.99,,2013-02-10 12:32:00,
2013-02-10 05:41:00,19.0,14.0,-100.00,NNE,25,0.0,0.0,81,-99.99,,,-99.99,,2013-02-10 12:41:00,
2013-02-10 05:52:00,19.0,14.0,-100.00,SSE,160,1.0,2.0,81,-99.99,,,-99.99,,2013-02-10 12:52:00,
2013-02-10 06:02:00,19.0,14.0,-100.00,SSE,155,1.0,2.0,81,-99.99,,,-99.99,,2013-02-10 13:02:00,
2013-02-10 06:11:00,19.0,14.0,-100.00,East,95,3.0,4.0,81,-99.99,,,-99.99,,2013-02-10 13:11:00,
2013-02-10 06:21:00,19.0,15.0,-100.00,SE,125,1.0,4.0,81,-99.99,,,-99.99,,2013-02-10 13:21:00,
2013-02-10 06:31:00,19.0,14.0,-100.00,SE,140,1.0,2.0,81,-99.99,,,-99.99,,2013-02-10 13:31:00,
2013-02-10 06:41:00,19.0,15.0,-100.00,East,85,0.0,1.0,81,-99.99,,,-99.99,,2013-02-10 13:41:00,
2013-02-10 06:51:00,20.0,15.0,-100.00,ESE,105,0.0,0.0,80,-99.99,,,-99.99,,2013-02-10 13:51:00,
2013-02-10 07:01:00,20.0,15.0,-100.00,East,100,0.0,0.0,80,-99.99,,,-99.99,,2013-02-10 14:01:00,
2013-02-10 07:11:00,20.0,15.0,-100.00,East,85,2.0,3.0,80,-99.99,,,-99.99,,2013-02-10 14:11:00,
2013-02-10 07:21:00,20.0,15.0,-100.00,East,100,1.0,2.0,80,-99.99,,,-99.99,,2013-02-10 14:21:00,
2013-02-10 07:31:00,20.0,15.0,-100.00,East,100,1.0,2.0,79,-99.99,,,-99.99,,2013-02-10 14:31:00,
2013-02-10 07:41:00,20.0,15.0,-100.00,East,80,0.0,2.0,79,-99.99,,,-99.99,,2013-02-10 14:41:00,
2013-02-10 07:52:00,21.0,15.0,-100.00,SSW,205,2.0,2.0,79,-99.99,,,-99.99,,2013-02-10 14:52:00,
2013-02-10 08:01:00,21.0,16.0,-100.00,WSW,245,2.0,2.0,79,-99.99,,,-99.99,,2013-02-10 15:01:00,
2013-02-10 08:11:00,21.0,16.0,-100.00,SW,225,1.0,2.0,79,-99.99,,,-99.99,,2013-02-10 15:11:00,
2013-02-10 08:21:00,22.0,16.0,-100.00,SSW,195,1.0,2.0,79,-99.99,,,-99.99,,2013-02-10 15:21:00,
2013-02-10 08:31:00,22.0,17.0,-100.00,South,185,1.0,2.0,78,-99.99,,,-99.99,,2013-02-10 15:31:00,
2013-02-10 08:41:00,23.0,17.0,-100.00,SSW,195,1.0,2.0,78,-99.99,,,-99.99,,2013-02-10 15:41:00,
2013-02-10 08:51:00,24.0,17.0,-100.00,South,190,2.0,2.0,76,-99.99,,,-99.99,,2013-02-10 15:51:00,
2013-02-10 09:01:00,24.0,16.0,-100.00,ESE,120,3.0,4.0,72,-99.99,,,-99.99,,2013-02-10 16:01:00,
2013-02-10 09:11:00,24.0,16.0,-100.00,East,90,2.0,4.0,70,-99.99,,,-99.99,,2013-02-10 16:11:00,
2013-02-10 09:21:00,24.0,16.0,-100.00,ESE,105,4.0,6.0,68,-99.99,,,-99.99,,2013-02-10 16:21:00,
2013-02-10 09:32:00,25.0,16.0,-100.00,ESE,115,4.0,6.0,67,-99.99,,,-99.99,,2013-02-10 16:32:00,
2013-02-10 09:42:00,27.0,17.0,-100.00,ESE,120,3.0,6.0,66,-99.99,,,-99.99,,2013-02-10 16:42:00,
2013-02-10 09:51:00,28.0,17.0,-100.00,South,180,4.0,6.0,65,-99.99,,,-99.99,,2013-02-10 16:51:00,
2013-02-10 10:01:00,29.0,18.0,-100.00,South,175,4.0,6.0,63,-99.99,,,-99.99,,2013-02-10 17:01:00,
2013-02-10 10:11:00,29.0,18.0,-100.00,SSW,195,3.0,5.0,61,-99.99,,,-99.99,,2013-02-10 17:11:00,
2013-02-10 10:21:00,31.0,18.0,-100.00,SSW,200,2.0,4.0,58,-99.99,,,-99.99,,2013-02-10 17:21:00,
2013-02-10 10:32:00,31.0,17.0,-100.00,SSW,200,2.0,4.0,56,-99.99,,,-99.99,,2013-02-10 17:32:00,
2013-02-10 10:42:00,32.0,18.0,-100.00,South,190,2.0,4.0,54,-99.99,,,-99.99,,2013-02-10 17:42:00,
2013-02-10 10:52:00,33.0,17.0,-100.00,South,190,4.0,6.0,52,-99.99,,,-99.99,,2013-02-10 17:52:00,
2013-02-10 11:01:00,33.0,17.0,-100.00,South,185,3.0,6.0,51,-99.99,,,-99.99,,2013-02-10 18:01:00,
2013-02-10 11:11:00,33.0,17.0,-100.00,SSW,195,3.0,5.0,51,-99.99,,,-99.99,,2013-02-10 18:11:00,
2013-02-10 11:21:00,33.0,17.0,-100.00,SSW,210,2.0,4.0,50,-99.99,,,-99.99,,2013-02-10 18:21:00,
2013-02-10 11:31:00,33.0,17.0,-100.00,South,180,3.0,4.0,50,-99.99,,,-99.99,,2013-02-10 18:31:00,
2013-02-10 11:41:00,33.0,16.0,-100.00,SW,225,1.0,4.0,50,-99.99,,,-99.99,,2013-02-10 18:41:00,
2013-02-10 11:52:00,33.0,17.0,-100.00,SSE,160,1.0,4.0,50,-99.99,,,-99.99,,2013-02-10 18:52:00,
2013-02-10 12:01:00,34.0,17.0,-100.00,SW,230,1.0,4.0,50,-99.99,,,-99.99,,2013-02-10 19:01:00,
2013-02-10 12:11:00,35.0,18.0,-100.00,NNW,335,1.0,4.0,49,-99.99,,,-99.99,,2013-02-10 19:11:00,
2013-02-10 12:21:00,35.0,18.0,-100.00,WNW,300,2.0,5.0,48,-99.99,,,-99.99,,2013-02-10 19:21:00,
2013-02-10 12:32:00,35.0,17.0,-100.00,West,270,2.0,4.0,47,-99.99,,,-99.99,,2013-02-10 19:32:00,
2013-02-10 12:42:00,35.0,17.0,-100.00,WNW,300,3.0,6.0,46,-99.99,,,-99.99,,2013-02-10 19:42:00,
2013-02-10 12:51:00,35.0,16.0,-100.00,WNW,285,2.0,6.0,45,-99.99,,,-99.99,,2013-02-10 19:51:00,
2013-02-10 13:01:00,37.0,17.0,-100.00,South,180,2.0,4.0,43,-99.99,,,-99.99,,2013-02-10 20:01:00,
2013-02-10 13:11:00,37.0,16.0,-100.00,SSW,205,2.0,6.0,42,-99.99,,,-99.99,,2013-02-10 20:11:00,
2013-02-10 13:21:00,37.0,16.0,-100.00,SW,220,6.0,7.0,41,-99.99,,,-99.99,,2013-02-10 20:21:00,
2013-02-10 13:32:00,36.0,14.0,-100.00,SW,235,4.0,8.0,39,-99.99,,,-99.99,,2013-02-10 20:32:00,
2013-02-10 13:42:00,37.0,15.0,-100.00,West,260,4.0,7.0,39,-99.99,,,-99.99,,2013-02-10 20:42:00,
2013-02-10 13:52:00,38.0,15.0,-100.00,WSW,240,6.0,8.0,38,-99.99,,,-99.99,,2013-02-10 20:52:00,
2013-02-10 14:02:00,38.0,14.0,-100.00,WSW,245,5.0,11.0,37,-99.99,,,-99.99,,2013-02-10 21:02:00,
2013-02-10 14:11:00,37.0,13.0,-100.00,SW,220,4.0,8.0,35,-99.99,,,-99.99,,2013-02-10 21:11:00,
2013-02-10 14:21:00,38.0,13.0,-100.00,SSW,195,3.0,9.0,35,-99.99,,,-99.99,,2013-02-10 21:21:00,
2013-02-10 14:32:00,38.0,13.0,-100.00,SW,215,4.0,9.0,34,-99.99,,,-99.99,,2013-02-10 21:32:00,
2013-02-10 14:42:00,39.0,13.0,-100.00,SW,230,6.0,9.0,33,-99.99,,,-99.99,,2013-02-10 21:42:00,
2013-02-10 14:51:00,38.0,12.0,-100.00,WNW,290,7.0,11.0,33,-99.99,,,-99.99,,2013-02-10 21:51:00,
2013-02-10 15:01:00,38.0,12.0,-100.00,WSW,240,4.0,9.0,33,-99.99,,,-99.99,,2013-02-10 22:01:00,
2013-02-10 15:11:00,38.0,12.0,-100.00,WSW,240,4.0,9.0,33,-99.99,,,-99.99,,2013-02-10 22:11:00,
2013-02-10 15:21:00,40.0,13.0,-100.00,WSW,250,6.0,8.0,32,-99.99,,,-99.99,,2013-02-10 22:21:00,
2013-02-10 15:31:00,39.0,13.0,-100.00,West,265,7.0,11.0,33,-99.99,,,-99.99,,2013-02-10 22:31:00,
2013-02-10 15:42:00,39.0,12.0,-100.00,SW,230,6.0,7.0,33,-99.99,,,-99.99,,2013-02-10 22:42:00,
2013-02-10 15:52:00,39.0,13.0,-100.00,WSW,240,4.0,8.0,33,-99.99,,,-99.99,,2013-02-10 22:52:00,
2013-02-10 16:01:00,38.0,12.0,-100.00,WSW,240,7.0,10.0,33,-99.99,,,-99.99,,2013-02-10 23:01:00,
2013-02-10 16:11:00,38.0,12.0,-100.00,West,265,4.0,9.0,33,-99.99,,,-99.99,,2013-02-10 23:11:00,
2013-02-10 16:21:00,38.0,13.0,-100.00,West,265,6.0,10.0,34,-99.99,,,-99.99,,2013-02-10 23:21:00,
2013-02-10 16:31:00,38.0,13.0,-100.00,SW,235,6.0,8.0,34,-99.99,,,-99.99,,2013-02-10 23:31:00,
2013-02-10 16:41:00,38.0,12.0,-100.00,WSW,255,4.0,7.0,34,-99.99,,,-99.99,,2013-02-10 23:41:00,
2013-02-10 16:52:00,37.0,12.0,-100.00,West,280,8.0,11.0,35,-99.99,,,-99.99,,2013-02-10 23:52:00,
2013-02-10 17:01:00,35.0,11.0,-100.00,West,270,7.0,11.0,36,-99.99,,,-99.99,,2013-02-11 00:01:00,
2013-02-10 17:11:00,34.0,11.0,-100.00,West,265,4.0,8.0,37,-99.99,,,-99.99,,2013-02-11 00:11:00,
2013-02-10 17:21:00,33.0,11.0,-100.00,WSW,240,4.0,6.0,39,-99.99,,,-99.99,,2013-02-11 00:21:00,
2013-02-10 17:32:00,32.0,11.0,-100.00,WSW,240,2.0,4.0,41,-99.99,,,-99.99,,2013-02-11 00:32:00,
2013-02-10 17:41:00,32.0,11.0,-100.00,SW,215,0.0,4.0,42,-99.99,,,-99.99,,2013-02-11 00:41:00,
2013-02-10 17:52:00,31.0,12.0,-100.00,West,270,2.0,3.0,44,-99.99,,,-99.99,,2013-02-11 00:52:00,
2013-02-10 18:01:00,31.0,13.0,-100.00,NW,320,2.0,4.0,45,-99.99,,,-99.99,,2013-02-11 01:01:00,
2013-02-10 18:11:00,31.0,13.0,-100.00,West,260,0.0,3.0,46,-99.99,,,-99.99,,2013-02-11 01:11:00,
2013-02-10 18:21:00,31.0,14.0,-100.00,North,0,1.0,2.0,47,-99.99,,,-99.99,,2013-02-11 01:21:00,
2013-02-10 18:32:00,31.0,14.0,-100.00,North,0,4.0,6.0,47,-99.99,,,-99.99,,2013-02-11 01:32:00,
2013-02-10 18:41:00,31.0,14.0,-100.00,WNW,300,3.0,6.0,48,-99.99,,,-99.99,,2013-02-11 01:41:00,
2013-02-10 18:52:00,31.0,15.0,-100.00,NW,310,6.0,10.0,51,-99.99,,,-99.99,,2013-02-11 01:52:00,
2013-02-10 19:01:00,31.0,16.0,-100.00,WNW,300,3.0,6.0,54,-99.99,,,-99.99,,2013-02-11 02:01:00,
2013-02-10 19:11:00,29.0,15.0,-100.00,SW,235,2.0,4.0,55,-99.99,,,-99.99,,2013-02-11 02:11:00,
2013-02-10 19:21:00,29.0,16.0,-100.00,West,260,3.0,5.0,57,-99.99,,,-99.99,,2013-02-11 02:21:00,
2013-02-10 19:31:00,29.0,18.0,-100.00,West,280,5.0,7.0,61,-99.99,,,-99.99,,2013-02-11 02:31:00,
2013-02-10 19:41:00,29.0,18.0,-100.00,SW,230,3.0,6.0,63,-99.99,,,-99.99,,2013-02-11 02:41:00,
2013-02-10 19:52:00,28.0,18.0,-100.00,SSE,155,0.0,3.0,65,-99.99,,,-99.99,,2013-02-11 02:52:00,
2013-02-10 20:01:00,27.0,18.0,-100.00,ESE,110,2.0,3.0,67,-99.99,,,-99.99,,2013-02-11 03:01:00,
2013-02-10 20:11:00,26.0,17.0,-100.00,SSE,160,2.0,5.0,68,-99.99,,,-99.99,,2013-02-11 03:11:00,
2013-02-10 20:21:00,27.0,18.0,-100.00,SE,130,1.0,2.0,69,-99.99,,,-99.99,,2013-02-11 03:21:00,
2013-02-10 20:31:00,27.0,19.0,-100.00,SE,125,3.0,4.0,70,-99.99,,,-99.99,,2013-02-11 03:31:00,
2013-02-10 20:41:00,27.0,19.0,-100.00,ESE,115,3.0,4.0,71,-99.99,,,-99.99,,2013-02-11 03:41:00,
2013-02-10 20:52:00,27.0,19.0,-100.00,East,100,4.0,4.0,70,-99.99,,,-99.99,,2013-02-11 03:52:00,
2013-02-10 21:01:00,27.0,19.0,-100.00,ESE,105,3.0,4.0,70,-99.99,,,-99.99,,2013-02-11 04:01:00,
2013-02-10 21:11:00,27.0,19.0,-100.00,SE,125,0.0,3.0,70,-99.99,,,-99.99,,2013-02-11 04:11:00,
2013-02-10 21:21:00,27.0,19.0,-100.00,SSE,150,1.0,2.0,70,-99.99,,,-99.99,,2013-02-11 04:21:00,
2013-02-10 21:31:00,27.0,19.0,-100.00,ESE,110,1.0,2.0,70,-99.99,,,-99.99,,2013-02-11 04:31:00,
2013-02-10 21:41:00,27.0,19.0,-100.00,ESE,110,0.0,2.0,71,-99.99,,,-99.99,,2013-02-11 04:41:00,
2013-02-10 21:51:00,27.0,19.0,-100.00,South,185,2.0,2.0,71,-99.99,,,-99.99,,2013-02-11 04:51:00,
2013-02-10 22:01:00,27.0,19.0,-100.00,SSW,200,1.0,2.0,71,-99.99,,,-99.99,,2013-02-11 05:01:00,
2013-02-10 22:11:00,27.0,20.0,-100.00,WNW,295,1.0,2.0,72,-99.99,,,-99.99,,2013-02-11 05:11:00,
2013-02-10 22:22:00,27.0,20.0,-100.00,WNW,295,0.0,1.0,72,-99.99,,,-99.99,,2013-02-11 05:22:00,
2013-02-10 22:31:00,27.0,19.0,-100.00,NW,320,0.0,0.0,72,-99.99,,,-99.99,,2013-02-11 05:31:00,
2013-02-10 22:41:00,27.0,19.0,-100.00,North,350,1.0,1.0,72,-99.99,,,-99.99,,2013-02-11 05:41:00,
2013-02-10 22:52:00,27.0,19.0,-100.00,North,350,0.0,1.0,72,-99.99,,,-99.99,,2013-02-11 05:52:00,
2013-02-10 23:01:00,27.0,20.0,-100.00,NW,315,0.0,0.0,72,-99.99,,,-99.99,,2013-02-11 06:01:00,
2013-02-10 23:11:00,27.0,20.0,-100.00,NNW,335,0.0,1.0,72,-99.99,,,-99.99,,2013-02-11 06:11:00,
2013-02-10 23:21:00,27.0,20.0,-100.00,North,5,1.0,1.0,72,-99.99,,,-99.99,,2013-02-11 06:21:00,
2013-02-10 23:32:00,27.0,20.0,-100.00,North,10,0.0,1.0,72,-99.99,,,-99.99,,2013-02-11 06:32:00,
2013-02-10 23:42:00,27.0,20.0,-100.00,North,10,0.0,0.0,72,-99.99,,,-99.99,,2013-02-11 06:42:00,
2013-02-10 23:51:00,27.0,20.0,-100.00,NE,40,0.0,1.0,72,-99.99,,,-99.99,,2013-02-11 06:51:00,